Location: Tafessasset
(32.5899°N, 5.4824°W)
Time: 07:45:11
(UTC+00:00)

COSMO-SKYMED 1 - Pass Details

Date: 18 February 2020
Orbit: 621 x 623 km, 97.9° (Epoch: 06 April)

Event Time Altitude Azimuth Distance (km) Brightness Sun altitude
Rises 05:50:35 0° 172° (S) 2,886 6.1 -15.8°
Reaches altitude 10° 05:52:46 10° 175° (S) 1,984 5.3 -15.3°
Maximum altitude 05:57:04 69° 259° (W) 669 2.5 -14.4°
Drops below altitude 10° 06:01:24 10° 343° (NNW) 1,998 4.9 -13.5°
Sets 06:03:36 0° 345° (NNW) 2,908 5.8 -13.1°
